Location: Newark
(43.0000°N, 1.6781°W)
Time: 04:41:43
(UTC+00:00)

Explorer 7 - Pass Details

Date: 22 April 2021
Orbit: 484 x 677 km, 50.3° (Epoch: 07 May)

Event Time Altitude Azimuth Distance (km) Brightness Sun altitude
Rises 17:21:53 0° 181° (S) 2,557 10.2 16.3°
Reaches altitude 10° 17:25:37 10° 143° (SE) 1,714 9.0 15.6°
Maximum altitude 17:26:36 11° 128° (SE) 1,674 8.9 15.5°
Drops below altitude 10° 17:27:37 10° 113° (ESE) 1,739 8.9 15.3°
Sets 17:31:30 0° 76° (ENE) 2,685 9.7 14.6°
